Sedona, AZ

4:15 PM MST on August 20, 2017 (GMT -0700)
Sedona

Weather History for KSEZ - September, 2013

Change the Weather History Date:

Tuesday, September 24, 2013

  Actual Average Record
Temperature  
Mean Temperature 70 °F -  
Max Temperature 82 °F 84 °F 95 °F (2015)
Min Temperature 59 °F 54 °F 50 °F (2016)
Cooling Degree Days 6    
Growing Degree Days 20 (Base 50)    
Moisture  
Dew Point 31 °F    
Average Humidity 24    
Maximum Humidity 34    
Minimum Humidity 16    
Precipitation  
Precipitation 0.00 in - - ()
Sea Level Pressure  
Sea Level Pressure 30.09 in    
Wind  
Wind Speed 10 mph (SE)    
Max Wind Speed 14 mph    
Max Gust Speed 21 mph    
Visibility 10 miles    
Events      
Averages and records for this station are not official NWS values.
T = Trace of Precipitation, MM = Missing Value Source: NWS Daily Summary

Daily Weather History Graph

Daily Weather History Graph

Search for Another Location

Airport or City:

Trip Planner

Search our weather history database for the weather conditions in past years. The results will help you decide how hot, cold, wet, or windy it might be!

Date:

Astronomy

Sep. 24, 2013 Rise Set
Actual Time 6:16 AM MST 6:20 PM MST
Civil Twilight 5:51 AM MST 6:45 PM MST
Nautical Twilight 5:22 AM MST 7:15 PM MST
Astronomical Twilight 4:52 AM MST 7:44 PM MST
Moon 9:53 PM MST (9/24) 11:22 AM MST (9/24)
Length of Visible Light 12h 54m
Length of Day
12h 03m
Waning Gibbous, 72% of the Moon is Illuminated
Sep 24
Waning Gibbous
Sep 26
Last Quarter
Oct 4
New
Oct 11
First Quarter
Oct 18
Full

Hourly Weather History & Observations

Time (MST) Temp. Dew Point Humidity Pressure Visibility Wind Dir Wind Speed Gust Speed Precip Events Conditions
12:35 AM 64.4 °F 30.2 °F 28% 30.11 in 10.0 mi NE 13.8 mph - N/A   Clear
12:55 AM 64.4 °F 30.2 °F 28% 30.11 in 10.0 mi NE 13.8 mph - N/A   Clear
1:15 AM 64.4 °F 30.2 °F 28% 30.12 in 10.0 mi NE 11.5 mph - N/A   Clear
1:35 AM 64.4 °F 28.4 °F 26% 30.12 in 10.0 mi ENE 13.8 mph - N/A   Clear
1:55 AM 62.6 °F 28.4 °F 27% 30.12 in 10.0 mi ENE 11.5 mph - N/A   Clear
2:15 AM 62.6 °F 28.4 °F 27% 30.12 in 10.0 mi ENE 11.5 mph - N/A   Clear
2:35 AM 62.6 °F 28.4 °F 27% 30.11 in 10.0 mi NE 11.5 mph - N/A   Clear
2:55 AM 62.6 °F 28.4 °F 27% 30.11 in 10.0 mi NE 11.5 mph - N/A   Clear
3:15 AM 62.6 °F 28.4 °F 27% 30.11 in 10.0 mi NE 11.5 mph - N/A   Clear
3:35 AM 62.6 °F 28.4 °F 27% 30.12 in 10.0 mi NE 12.7 mph - N/A   Clear
3:55 AM 60.8 °F 28.4 °F 29% 30.12 in 10.0 mi NE 11.5 mph 16.1 mph N/A   Clear
4:15 AM 60.8 °F 28.4 °F 29% 30.12 in 10.0 mi NE 11.5 mph - N/A   Clear
4:35 AM 60.8 °F 28.4 °F 29% 30.13 in 10.0 mi NE 10.4 mph - N/A   Clear
4:55 AM 60.8 °F 28.4 °F 29% 30.13 in 10.0 mi NE 11.5 mph - N/A   Clear
5:15 AM 59.0 °F 28.4 °F 31% 30.13 in 10.0 mi NE 12.7 mph - N/A   Clear
5:35 AM 59.0 °F 30.2 °F 34% 30.13 in 10.0 mi NE 10.4 mph - N/A   Clear
5:55 AM 59.0 °F 30.2 °F 34% 30.14 in 10.0 mi NE 13.8 mph - N/A   Clear
6:15 AM 59.0 °F 30.2 °F 34% 30.14 in 10.0 mi NE 13.8 mph - N/A   Clear
6:35 AM 59.0 °F 30.2 °F 34% 30.15 in 10.0 mi NE 13.8 mph - N/A   Clear
6:55 AM 60.8 °F 30.2 °F 31% 30.15 in 10.0 mi NE 11.5 mph - N/A   Clear
7:15 AM 60.8 °F 32.0 °F 34% 30.15 in 10.0 mi NE 12.7 mph - N/A   Clear
7:35 AM 60.8 °F 32.0 °F 34% 30.15 in 10.0 mi NE 12.7 mph - N/A   Clear
7:55 AM 62.6 °F 32.0 °F 32% 30.16 in 10.0 mi NE 12.7 mph - N/A   Clear
8:15 AM 64.4 °F 32.0 °F 30% 30.16 in 10.0 mi NE 10.4 mph - N/A   Clear
8:35 AM 68.0 °F 32.0 °F 26% 30.16 in 10.0 mi NE 8.1 mph - N/A   Clear
8:55 AM 69.8 °F 33.8 °F 27% 30.17 in 10.0 mi East 6.9 mph - N/A   Clear
9:15 AM 71.6 °F 33.8 °F 25% 30.17 in 10.0 mi Calm Calm - N/A   Clear
9:35 AM 71.6 °F 33.8 °F 25% 30.17 in 10.0 mi SSE 3.5 mph - N/A   Clear
9:55 AM 73.4 °F 37.4 °F 27% 30.17 in 10.0 mi SE 4.6 mph - N/A   Clear
10:15 AM 75.2 °F 33.8 °F 22% 30.17 in 10.0 mi ESE 3.5 mph - N/A   Clear
10:55 AM 78.8 °F 33.8 °F 20% 30.16 in 10.0 mi SSW 3.5 mph - N/A   Clear
11:15 AM 78.8 °F 32.0 °F 18% 30.16 in 10.0 mi SSW 9.2 mph - N/A   Clear
11:35 AM 80.6 °F 32.0 °F 17% 30.15 in 10.0 mi Calm Calm - N/A   Clear
11:55 AM 78.8 °F 32.0 °F 18% 30.14 in 10.0 mi SSE 6.9 mph - N/A   Clear
12:15 PM 82.4 °F 32.0 °F 16% 30.14 in 10.0 mi SSE 10.4 mph - N/A   Clear
12:35 PM 82.4 °F 33.8 °F 17% 30.13 in 10.0 mi SE 9.2 mph - N/A   Clear
12:55 PM 80.6 °F 32.0 °F 17% 30.12 in 10.0 mi South 4.6 mph - N/A   Clear
1:15 PM 82.4 °F 32.0 °F 16% 30.10 in 10.0 mi SSE 6.9 mph - N/A   Clear
1:35 PM 80.6 °F 32.0 °F 17% 30.10 in 10.0 mi SSW 5.8 mph 16.1 mph N/A   Clear
1:55 PM 80.6 °F 32.0 °F 17% 30.09 in 10.0 mi SW 6.9 mph - N/A   Clear
2:15 PM 82.4 °F 33.8 °F 17% 30.08 in 10.0 mi South 8.1 mph - N/A   Clear
2:35 PM 80.6 °F 32.0 °F 17% 30.08 in 10.0 mi Calm Calm - N/A   Clear
2:55 PM 82.4 °F 33.8 °F 17% 30.06 in 10.0 mi SSE 10.4 mph - N/A   Clear
3:15 PM 82.4 °F 33.8 °F 17% 30.05 in 10.0 mi SE 12.7 mph 18.4 mph N/A   Clear
3:35 PM 82.4 °F 32.0 °F 16% 30.05 in 10.0 mi South 11.5 mph 16.1 mph N/A   Clear
3:55 PM 82.4 °F 32.0 °F 16% 30.05 in 10.0 mi SSW 8.1 mph 17.3 mph N/A   Clear
4:15 PM 80.6 °F 32.0 °F 17% 30.04 in 10.0 mi South 6.9 mph 18.4 mph N/A   Clear
4:35 PM 80.6 °F 32.0 °F 17% 30.03 in 10.0 mi SSW 10.4 mph 16.1 mph N/A   Clear
4:55 PM 80.6 °F 30.2 °F 16% 30.03 in 10.0 mi South 9.2 mph 18.4 mph N/A   Clear
5:15 PM 78.8 °F 30.2 °F 17% 30.03 in 10.0 mi South 9.2 mph 19.6 mph N/A   Clear
5:35 PM 78.8 °F 30.2 °F 17% 30.02 in 10.0 mi SSW 11.5 mph - N/A   Clear
5:55 PM 77.0 °F 30.2 °F 18% 30.02 in 10.0 mi SW 12.7 mph 20.7 mph N/A   Clear
6:15 PM 75.2 °F 30.2 °F 19% 30.02 in 10.0 mi SW 11.5 mph - N/A   Clear
6:35 PM 73.4 °F 32.0 °F 22% 30.02 in 10.0 mi SW 5.8 mph - N/A   Clear
6:55 PM 71.6 °F 32.0 °F 23% 30.03 in 10.0 mi SW 5.8 mph - N/A   Clear
7:15 PM 71.6 °F 32.0 °F 23% 30.03 in 10.0 mi Calm Calm - N/A   Clear
7:35 PM 69.8 °F 32.0 °F 25% 30.04 in 10.0 mi SSW 6.9 mph - N/A   Clear
7:55 PM 71.6 °F 32.0 °F 23% 30.04 in 10.0 mi SSW 5.8 mph - N/A   Clear
8:15 PM 69.8 °F 32.0 °F 25% 30.04 in 10.0 mi Calm Calm - N/A   Clear
8:35 PM 69.8 °F 32.0 °F 25% 30.04 in 10.0 mi South 4.6 mph - N/A   Clear
8:55 PM 68.0 °F 32.0 °F 26% 30.03 in 10.0 mi SSE 3.5 mph - N/A   Clear
9:15 PM 68.0 °F 32.0 °F 26% 30.03 in 10.0 mi South 4.6 mph - N/A   Clear
9:35 PM 68.0 °F 32.0 °F 26% 30.03 in 10.0 mi South 3.5 mph - N/A   Clear
9:55 PM 68.0 °F 32.0 °F 26% 30.03 in 10.0 mi South 6.9 mph - N/A   Clear
10:15 PM 68.0 °F 32.0 °F 26% 30.03 in 10.0 mi SSE 5.8 mph - N/A   Clear
10:35 PM 68.0 °F 32.0 °F 26% 30.03 in 10.0 mi South 4.6 mph - N/A   Clear
10:55 PM 68.0 °F 32.0 °F 26% 30.02 in 10.0 mi Calm Calm - N/A   Clear
11:15 PM 66.2 °F 32.0 °F 28% 30.02 in 10.0 mi Calm Calm - N/A   Clear
11:35 PM 68.0 °F 32.0 °F 26% 30.01 in 10.0 mi Calm Calm - N/A   Clear
11:55 PM 68.0 °F 32.0 °F 26% 30.00 in 10.0 mi Calm Calm - N/A   Clear